Wind_Speed
26 26 26 27 26 26 26 25 25 24 25 24 24 24 23 22 20 19 18 18 18 17 17 17 17 18 18 18 19 19 19 19 19 18 17 17 17 16 15 15 15 15 15 14 14 13 13 13 12 11 11 11 12 12 12 13 13 13 13 12 12 11 11 6 2 10 19 21 29 21 10 12 17 22 19 16 19 20 22 22 25 26 26 32 33 32 32 32
25 25 25 26 26 26 26 26 25 25 24 24 25 24 24 23 22 21 20 19 18 18 18 17 17 17 18 18 19 19 19 19 19 18 17 17 17 17 16 15 15 15 15 15 15 14 13 13 12 12 12 12 13 12 12 13 13 13 13 13 12 11 10 8 13 21 21 18 23 19 11 14 18 21 21 18 18 20 21 22 24 21 20 31 34 28 27 29
24 24 24 25 25 25 25 25 25 25 25 25 25 25 25 24 24 23 21 20 19 19 18 17 17 17 18 18 18 19 19 19 18 17 17 17 17 17 16 16 16 16 16 15 15 15 14 14 13 13 12 12 13 12 13 13 13 13 14 13 11 12 12 15 22 22 18 14 18 20 16 16 17 19 22 19 19 19 19 24 24 16 18 30 34 29 26 25
23 23 23 24 24 24 25 24 24 24 24 25 25 25 25 25 25 24 23 22 21 20 18 18 17 17 18 17 18 18 18 18 16 17 18 17 17 17 17 16 16 16 16 16 16 15 15 14 13 13 13 13 13 13 14 14 13 14 14 13 15 17 15 16 21 18 17 15 16 20 17 18 19 18 21 20 20 17 16 26 27 20 22 30 32 30 28 26
22 22 22 23 23 24 24 24 24 23 23 24 24 25 24 25 25 24 24 23 22 21 20 19 18 18 18 18 18 17 18 16 14 18 18 16 17 16 17 16 16 16 16 16 16 16 15 14 13 12 13 13 13 13 15 14 15 15 13 15 20 19 16 18 18 14 16 15 16 19 17 20 20 17 20 20 20 19 20 28 29 22 21 28 32 29 28 29
22 22 22 22 22 23 23 24 24 23 23 23 23 24 24 24 24 24 24 23 23 22 21 20 19 19 18 18 18 17 18 13 12 17 16 16 17 16 16 15 16 16 16 16 16 15 14 13 13 12 13 14 13 14 16 16 16 15 14 17 20 17 17 21 17 12 15 14 16 18 17 19 19 20 21 20 21 22 22 26 27 23 24 29 30 28 28 29
22 22 21 21 22 22 23 23 23 23 22 22 22 23 24 24 24 24 24 24 23 23 22 21 21 20 19 19 18 19 18 13 13 15 14 15 16 15 15 15 15 16 16 16 15 15 14 13 13 13 13 14 15 15 16 17 16 15 16 19 19 17 18 22 16 13 15 15 17 17 18 18 18 21 21 20 21 22 23 24 23 23 27 29 26 27 29 28
22 22 22 22 22 22 22 23 23 22 22 22 21 22 23 23 23 23 23 23 23 23 23 22 22 21 20 20 19 19 17 14 16 16 14 15 15 15 15 14 15 15 15 15 15 14 14 13 13 14 14 16 16 17 17 16 15 16 18 19 19 18 19 21 17 15 16 15 17 16 18 18 18 21 22 22 22 22 23 22 21 21 27 30 25 25 27 26
23 24 24 23 22 22 22 22 22 22 21 21 21 21 21 22 23 23 23 23 23 23 22 22 23 22 22 21 20 19 15 14 16 15 15 15 15 15 14 14 15 15 15 15 15 14 15 15 15 16 17 17 17 18 17 14 15 17 19 20 18 17 18 19 17 16 16 16 16 16 18 19 19 20 21 23 22 22 21 20 21 20 25 29 24 22 23 25
25 25 25 24 23 22 22 21 21 21 20 20 20 20 20 21 22 22 22 22 22 22 22 22 22 23 24 22 22 20 14 14 16 15 15 16 15 15 14 14 15 15 15 15 16 16 17 16 17 16 14 17 17 16 16 15 18 18 18 19 16 17 18 18 17 17 16 16 16 17 18 19 20 20 21 25 22 20 20 20 21 19 24 27 23 22 23 26
26 26 25 24 23 22 22 21 21 20 19 19 19 19 19 20 20 21 22 21 21 21 21 21 21 23 24 23 24 21 15 15 15 14 15 16 15 15 15 15 15 15 16 16 17 17 16 15 15 14 14 18 18 16 17 18 19 16 16 17 15 17 19 17 17 17 16 16 16 17 19 19 21 19 20 25 20 17 18 20 20 19 24 24 21 23 23 26
26 25 25 24 23 23 22 21 20 19 18 18 18 18 18 19 19 20 20 21 20 20 20 20 20 22 23 24 25 21 17 17 16 15 15 15 15 15 15 16 16 16 16 17 18 17 16 15 15 17 18 17 16 18 19 18 18 16 16 17 16 18 18 17 17 16 16 16 15 17 18 19 20 18 20 25 22 17 17 19 19 19 24 22 20 23 22 24
25 25 24 24 23 23 22 21 20 19 18 18 18 17 17 17 18 18 19 20 19 19 20 19 19 21 22 24 23 21 20 19 17 16 16 15 15 15 15 16 16 16 17 17 17 16 17 16 18 20 17 15 18 19 18 17 17 17 18 17 17 18 16 17 16 15 17 17 16 16 16 18 20 20 18 18 19 17 16 19 19 19 24 21 19 22 22 22
25 24 24 24 24 23 22 21 20 19 18 18 17 17 16 16 16 17 17 18 18 18 18 18 19 19 21 23 21 21 22 21 19 18 16 15 15 15 15 15 15 16 16 17 17 16 17 18 19 18 15 18 21 17 15 17 17 16 17 16 15 14 12 17 17 11 14 17 15 13 13 13 15 21 17 9 15 18 16 20 18 18 24 21 20 22 22 21
25 25 24 24 24 23 22 21 19 19 18 17 17 16 15 14 14 15 16 17 17 17 17 17 18 19 21 22 20 21 22 22 21 19 17 16 15 14 14 14 15 15 15 16 16 17 18 18 19 18 18 22 21 16 16 17 16 16 16 14 13 9 6 14 18 9 11 16 13 11 13 9 10 22 20 6 12 18 17 22 20 17 23 22 21 22 21 22
26 25 25 25 24 23 22 20 19 18 17 17 17 16 15 14 14 14 14 14 16 16 16 16 17 18 20 20 19 21 23 23 22 20 19 18 16 14 14 14 14 14 14 15 16 17 18 18 19 20 20 21 19 19 19 17 16 16 15 13 10 4 3 13 22 18 14 17 15 13 13 7 3 18 26 15 13 16 18 23 21 18 22 21 21 22 22 22
26 26 26 25 24 23 21 20 18 17 16 16 16 15 14 13 12 12 12 12 13 15 15 15 15 17 18 19 21 22 22 21 22 21 20 19 17 15 13 13 13 13 14 14 14 16 17 19 19 19 20 19 18 19 19 17 15 13 12 11 7 7 8 15 24 23 20 19 16 14 14 12 14 19 26 28 21 16 19 23 20 17 20 21 20 22 23 23
27 27 26 25 24 23 22 20 19 17 16 15 14 13 12 10 10 9 9 10 11 13 14 14 15 15 17 18 20 23 21 19 21 21 20 19 17 16 14 13 13 13 13 13 14 15 17 19 18 20 21 19 18 18 17 15 9 5 7 12 8 9 12 12 16 23 23 18 13 12 13 16 18 16 18 29 28 18 20 25 22 17 18 20 19 21 23 23
27 27 26 26 25 24 22 21 19 17 16 14 13 11 9 8 7 7 7 7 8 10 11 12 12 13 14 14 16 21 21 19 19 19 20 19 18 17 15 14 13 12 13 13 13 15 16 17 18 20 19 18 19 17 16 14 9 3 9 14 15 11 10 11 16 22 22 22 22 21 18 17 19 16 12 26 31 17 17 26 25 19 18 19 18 20 22 23
28 28 27 27 26 25 23 22 20 18 16 14 12 9 7 6 6 6 5 5 6 7 8 9 10 10 11 11 12 16 18 18 18 18 18 18 17 17 15 14 12 12 13 12 14 16 17 17 18 19 18 17 16 15 16 14 13 14 22 23 16 13 11 10 16 23 23 23 26 26 23 18 19 14 6 22 33 19 14 22 25 21 20 19 18 21 20 21
29 28 28 27 27 26 24 23 22 20 17 14 10 7 6 7 6 5 4 5 5 5 7 7 8 8 8 10 11 12 16 17 17 17 17 16 16 16 15 14 12 12 12 12 15 16 14 14 15 16 17 16 9 10 15 13 15 24 27 27 20 11 13 18 18 17 24 24 23 26 25 21 19 13 12 19 32 30 19 19 24 22 20 20 19 22 19 20
30 29 29 28 28 27 26 24 23 21 18 14 10 8 7 8 6 4 3 3 4 5 5 5 6 7 7 10 11 10 13 16 16 17 15 14 16 16 15 13 12 11 11 12 14 13 9 9 13 14 15 15 9 10 18 20 21 25 22 24 22 12 11 18 19 13 19 24 23 23 22 19 17 16 17 21 28 31 24 19 23 22 19 19 22 24 20 20
31 31 30 29 29 28 27 27 25 22 20 15 11 9 8 7 5 4 2 1 3 4 5 4 4 5 6 9 9 9 10 13 16 17 14 12 15 16 13 12 12 10 11 13 12 12 8 4 8 10 9 11 11 12 16 22 22 20 19 24 23 16 13 15 15 13 18 20 18 16 16 16 16 16 19 20 21 23 21 19 20 19 17 18 23 25 19 21
33 32 32 31 30 29 29 28 27 25 22 18 14 11 9 8 7 6 4 2 2 4 5 4 4 5 5 6 7 7 8 9 12 15 14 13 14 15 13 13 13 11 11 11 9 12 10 7 8 12 10 10 13 14 13 18 22 19 21 25 23 19 15 15 16 17 16 17 17 16 16 16 16 17 16 17 15 14 16 16 17 20 20 19 23 26 21 21
34 34 33 33 32 31 30 30 28 27 25 21 17 15 13 12 10 8 6 4 5 6 6 5 4 4 4 4 5 4 5 7 9 12 13 13 13 13 13 12 11 9 7 7 10 12 12 12 10 8 11 13 15 16 15 19 21 20 20 20 20 20 18 17 16 17 18 16 14 16 19 17 15 16 17 19 16 12 16 14 12 19 24 23 24 27 25 20
35 35 34 34 34 33 31 30 30 28 26 24 21 18 16 14 13 11 9 8 9 9 8 6 5 4 4 3 2 1 2 5 8 9 10 12 13 12 13 11 10 9 7 9 14 14 12 13 11 8 12 16 15 14 16 18 18 18 15 13 16 19 20 21 19 19 21 19 17 16 19 18 15 14 14 16 16 15 19 18 16 20 25 26 25 27 27 21
35 35 35 35 35 34 33 31 30 28 27 25 22 19 17 16 15 12 10 10 10 11 10 8 6 4 4 3 1 0 2 4 5 7 9 11 12 12 13 12 11 11 12 13 12 11 13 13 15 16 17 17 16 15 15 17 18 16 12 10 14 16 17 19 18 20 21 20 21 19 18 20 18 16 14 16 17 17 19 21 21 22 24 26 26 25 26 22
35 35 35 35 35 35 34 32 31 29 28 26 23 20 18 17 17 15 13 12 10 11 10 8 7 5 4 3 2 1 3 5 5 5 7 9 10 10 12 13 13 12 14 13 10 12 14 12 13 16 16 16 16 15 13 14 16 14 13 15 18 18 16 16 17 17 17 18 22 18 17 21 20 16 15 18 19 17 19 23 23 21 22 26 26 24 24 25
34 35 35 36 35 35 35 33 32 30 29 27 24 21 20 18 19 17 15 13 11 12 10 7 8 6 4 4 3 2 4 6 6 6 7 8 8 10 12 12 12 13 14 13 11 13 14 14 15 16 16 14 12 13 14 16 16 15 20 21 19 19 18 18 19 17 17 21 23 17 16 21 20 16 16 19 21 18 17 20 22 22 24 27 25 23 24 27
32 34 34 35 35 35 35 34 33 31 30 28 26 23 22 19 18 17 16 14 12 13 12 9 8 7 6 6 4 4 5 6 7 7 8 8 8 9 11 11 11 13 14 14 13 14 15 16 17 17 19 19 17 19 20 20 21 22 27 25 20 22 22 23 24 20 22 27 25 18 17 20 21 18 18 20 21 20 19 19 21 22 23 26 26 23 23 26
31 33 33 34 34 34 35 34 33 32 30 29 27 25 23 20 18 17 16 14 13 13 12 10 10 9 7 7 5 5 6 7 8 8 8 9 7 8 10 11 13 14 14 16 16 16 17 17 17 17 20 21 22 24 22 22 22 23 28 28 25 27 28 30 29 25 28 30 24 17 14 19 23 21 18 18 21 24 24 23 23 22 23 27 28 25 23 25
31 32 32 33 33 33 34 34 33 32 30 29 28 26 23 21 19 17 15 13 13 14 12 10 11 9 7 8 6 5 6 7 8 8 8 9 9 9 10 11 14 14 15 16 16 16 16 17 17 17 18 19 20 20 20 22 23 20 21 26 26 26 27 30 27 23 26 25 18 15 14 18 21 20 19 17 18 21 23 25 25 23 24 26 26 25 24 26
31 31 32 32 32 32 33 33 32 31 30 29 29 26 24 22 20 17 15 14 13 14 12 10 10 9 8 8 7 7 8 9 9 9 9 9 11 12 12 14 16 17 18 16 15 16 17 17 17 15 17 20 18 15 15 18 19 16 14 16 19 18 19 21 20 20 22 20 16 15 18 21 21 21 21 20 19 19 21 25 24 23 25 25 25 27 28 28
29 30 31 31 31 31 32 32 31 31 30 29 28 26 25 23 20 17 16 15 13 12 11 10 9 8 8 8 7 7 9 9 9 11 12 13 14 14 15 18 18 19 21 19 17 18 18 18 19 18 19 19 17 14 14 15 16 17 15 14 16 15 15 18 18 19 21 20 19 18 20 22 20 21 22 22 23 23 24 28 28 28 29 26 24 26 29 30
28 28 29 30 30 30 31 31 31 30 29 29 28 26 25 24 21 19 18 17 15 13 11 10 8 8 8 7 7 8 9 9 9 10 12 13 14 15 17 19 19 19 20 18 18 20 19 19 20 21 22 20 19 18 19 20 19 18 17 18 19 16 17 22 22 21 21 22 23 20 21 22 19 20 21 20 21 22 23 26 28 30 30 26 25 25 27 31
26 27 27 28 29 29 30 30 30 30 28 27 29 27 24 23 22 21 20 18 18 16 14 12 9 9 8 7 7 8 9 10 10 10 10 11 12 12 14 18 18 18 19 18 19 20 20 20 21 23 23 23 24 24 24 24 20 18 21 21 21 20 21 24 25 23 23 26 24 20 22 24 23 24 24 21 20 20 20 21 23 29 30 27 25 23 23 27
25 25 25 25 26 28 29 29 29 29 27 27 29 26 23 22 21 20 20 19 18 18 17 15 12 12 10 8 7 8 9 9 9 10 10 12 12 11 13 15 15 17 19 19 19 20 22 21 19 21 23 22 24 26 25 24 23 22 23 22 23 25 24 25 26 24 23 25 24 21 23 25 24 27 27 23 21 20 18 18 20 26 27 24 23 22 21 22
24 24 23 23 24 26 27 27 28 27 27 29 28 25 22 22 21 20 19 19 18 18 18 17 15 14 12 10 9 9 8 8 8 9 11 12 11 12 14 15 15 15 17 18 19 20 22 21 17 18 21 21 23 25 23 22 23 23 22 22 24 26 24 25 26 24 22 24 24 21 22 24 25 27 27 26 25 23 21 20 20 23 25 24 23 23 22 21
23 22 22 22 23 24 25 26 27 27 28 29 26 24 23 22 21 20 19 18 18 17 17 16 15 14 14 13 11 10 10 10 9 10 12 13 12 13 15 16 16 16 16 18 20 19 21 22 19 17 20 22 24 26 24 22 23 22 22 23 25 25 25 25 25 24 23 24 24 23 22 23 25 27 26 25 26 26 24 21 18 20 23 23 21 22 22 22
22 21 21 22 23 23 23 24 24 26 28 27 25 24 24 23 22 21 20 18 18 17 16 16 15 15 14 14 13 12 12 11 11 11 13 14 14 14 15 16 17 18 19 20 22 21 21 24 22 18 19 22 24 26 25 25 27 27 27 26 26 26 27 27 27 26 26 26 25 26 25 24 26 27 26 26 28 28 25 22 20 21 24 24 23 24 23 24
20 19 20 22 22 22 22 22 22 24 26 26 24 24 24 24 23 22 21 20 18 17 17 16 15 15 14 14 14 13 13 12 12 13 14 15 15 15 15 17 18 19 20 20 22 23 22 25 25 22 22 24 24 25 25 25 27 28 29 30 29 28 28 29 27 25 26 28 28 29 29 27 27 27 26 28 29 29 26 25 25 24 25 26 25 25 25 26
18 19 20 21 21 21 21 21 21 23 25 25 24 24 23 23 23 23 23 21 20 19 18 16 16 15 15 15 14 14 14 13 13 14 15 16 17 17 17 18 19 20 20 20 22 23 23 25 27 25 24 24 24 24 24 25 27 27 28 30 30 29 27 28 27 26 27 29 31 32 30 29 30 29 29 29 29 29 29 28 29 28 28 29 27 26 27 26
18 19 19 20 20 20 20 20 22 23 24 24 23 23 23 22 22 23 24 23 21 20 19 18 17 17 16 16 15 15 15 14 14 15 16 18 19 19 19 20 21 22 22 21 22 24 24 25 26 25 25 24 24 24 25 27 29 29 29 29 29 28 28 29 29 30 30 30 30 31 30 31 32 30 31 31 31 32 32 30 31 32 32 32 30 28 29 28
17 18 18 19 20 20 19 20 21 22 22 23 22 22 22 22 22 23 24 24 23 22 20 19 19 18 17 16 16 16 16 15 16 16 17 19 20 20 19 19 21 22 22 22 23 24 24 24 25 26 25 24 22 24 25 26 27 29 30 30 30 30 30 31 32 33 33 31 31 31 31 30 31 31 31 31 32 34 35 33 33 34 34 33 31 29 30 30
16 16 17 18 19 19 20 20 21 21 21 22 22 22 21 21 21 23 24 25 25 24 22 21 20 20 19 18 17 17 17 16 16 17 18 19 21 22 21 20 21 23 23 23 24 25 24 24 24 25 26 24 22 23 25 25 26 27 26 25 26 28 30 31 33 35 35 33 31 31 30 27 28 30 30 29 30 30 31 32 32 33 34 34 33 31 31 30
15 16 17 18 18 19 20 21 21 21 22 22 22 21 21 20 21 22 23 25 26 26 24 23 22 22 21 20 18 18 18 18 18 18 19 20 21 23 23 22 23 23 23 24 24 24 25 23 23 25 25 25 24 24 26 27 28 28 26 23 22 25 27 28 29 30 31 31 29 27 27 26 26 27 28 28 29 27 26 28 30 31 33 35 34 32 32 32
15 16 16 17 18 19 20 20 21 22 22 22 22 22 21 21 21 21 22 24 26 27 26 24 23 22 23 22 21 20 19 20 20 20 20 20 22 23 23 24 25 24 24 25 25 25 25 23 22 24 25 26 25 24 25 28 29 29 31 30 29 28 28 28 27 26 27 29 27 23 24 26 25 26 27 28 29 27 27 29 29 29 31 33 33 32 31 31
15 16 16 16 17 19 20 20 21 22 22 22 22 22 22 21 21 22 23 24 26 28 27 25 23 23 23 23 24 23 22 21 22 22 22 21 22 23 24 25 26 25 25 26 25 25 25 24 23 24 25 25 25 22 22 25 26 26 27 29 29 30 31 30 30 29 30 30 28 25 26 28 29 30 29 28 29 30 31 29 28 29 31 32 33 33 32 32
15 15 16 16 17 18 19 20 21 21 21 21 22 22 22 21 22 22 23 25 26 28 28 26 24 23 23 23 25 25 25 24 24 24 25 24 24 24 25 25 27 26 26 26 25 25 25 23 23 24 24 23 24 23 21 23 24 24 24 24 25 27 29 29 30 30 31 32 31 30 31 32 34 34 33 33 33 33 33 31 29 30 31 31 32 32 32 33
15 15 16 16 17 18 19 20 20 20 20 22 22 22 22 22 22 23 24 25 26 28 29 27 24 23 23 23 24 26 26 27 26 26 27 27 26 27 26 26 27 27 27 26 26 25 24 22 22 25 24 21 22 23 22 23 24 23 22 22 23 24 26 27 27 28 29 30 30 32 33 33 35 36 36 37 36 34 33 33 32 32 32 30 29 29 28 28
14 15 16 16 16 17 19 20 20 21 22 23 23 23 23 23 23 23 23 24 25 28 30 28 25 24 24 24 25 26 27 28 28 28 29 28 28 29 29 28 28 29 28 27 27 25 24 22 21 24 24 20 20 22 21 22 24 23 21 21 22 23 24 25 25 26 28 29 29 31 31 31 32 33 33 34 35 32 31 33 33 32 32 29 27 26 25 25
14 15 16 16 17 18 18 18 19 21 23 24 24 24 24 24 25 25 24 24 25 28 30 29 25 24 25 25 25 27 28 28 28 29 29 30 29 30 30 29 30 29 28 26 26 25 23 22 20 22 24 19 19 21 21 22 24 22 21 22 21 21 22 23 24 26 26 26 27 28 29 30 30 29 29 30 31 30 30 31 30 30 29 27 26 24 23 24
Wind_Direction
302 300 298 296 294 292 290 287 284 281 278 275 273 272 272 271 270 269 269 268 268 269 269 268 265 262 260 259 257 256 255 255 255 255 255 254 253 253 253 251 245 238 234 233 234 236 239 242 245 250 253 253 251 247 245 243 243 241 241 236 231 233 220 200 80 260 247 229 244 274 301 271 271 279 285 283 279 279 280 282 279 280 282 278 273 275 279 276
304 303 301 300 297 295 292 288 285 282 278 275 272 271 270 269 269 268 267 267 266 266 267 267 266 264 261 259 257 255 254 254 254 255 255 254 252 252 251 250 246 240 237 236 236 239 241 245 249 254 255 253 251 250 248 245 244 242 240 238 233 231 224 204 204 233 250 242 252 279 287 270 275 282 288 286 282 285 287 283 280 285 284 279 281 281 277 276
306 304 303 302 300 299 296 293 289 284 280 276 273 270 268 267 267 266 265 264 264 264 264 264 265 265 263 260 257 255 254 253 254 255 254 253 252 250 248 247 245 240 239 238 238 241 243 248 251 253 255 252 251 250 248 246 245 243 242 237 229 219 220 237 232 236 261 258 259 276 280 278 277 280 286 289 288 289 288 281 275 273 273 281 287 286 282 283
309 307 305 303 302 300 299 297 293 289 284 278 275 271 268 266 265 265 263 262 262 262 262 262 262 263 263 262 260 257 255 254 255 255 253 252 251 249 246 244 242 239 238 239 240 243 245 248 250 252 253 251 251 250 248 249 245 242 244 233 226 220 216 247 253 248 259 258 260 273 278 278 277 282 285 288 288 283 278 279 281 281 282 284 286 290 292 289
313 311 309 306 304 302 301 299 297 293 289 283 277 273 270 266 264 263 262 261 260 259 259 259 260 260 260 261 262 260 258 256 254 253 251 252 251 248 246 242 240 238 237 239 240 242 245 246 247 249 250 251 252 251 249 249 246 245 245 234 235 236 227 246 260 253 257 262 262 270 275 276 282 285 282 285 285 277 273 281 290 296 287 281 285 293 293 287
317 315 313 310 308 305 303 301 299 296 292 288 282 276 272 268 265 261 260 260 258 257 257 257 257 257 258 258 259 260 259 256 250 251 252 252 250 247 245 241 239 237 237 238 240 241 243 244 245 245 246 251 250 249 250 248 249 246 239 236 243 248 241 251 265 261 259 261 260 268 272 276 285 283 282 284 280 279 279 281 290 294 283 279 287 291 288 287
321 319 317 314 311 309 306 303 301 299 296 292 286 280 275 271 267 263 259 257 257 255 254 254 253 254 255 255 256 256 257 253 250 254 254 251 250 246 242 241 238 237 237 237 239 239 240 239 240 242 244 250 250 248 249 248 248 245 240 241 245 245 244 255 264 260 259 261 263 269 273 278 281 280 284 284 280 281 279 281 287 289 284 284 288 287 288 291
325 324 321 318 315 312 308 306 303 301 299 295 290 284 278 273 269 265 261 257 255 253 252 251 250 251 252 253 254 253 255 255 252 254 253 250 249 246 241 239 237 237 237 237 238 237 238 238 237 240 238 241 245 245 247 250 245 242 243 242 245 244 246 257 262 258 259 262 266 271 274 278 277 279 284 282 281 280 279 283 284 283 282 285 289 289 291 293
329 326 324 321 318 315 311 308 305 302 299 297 293 288 282 276 271 267 263 258 254 252 250 249 248 248 248 250 252 252 252 252 251 250 251 251 248 246 241 237 236 237 238 237 238 235 235 234 233 237 238 241 247 248 249 248 239 237 242 244 245 246 246 254 258 257 259 263 269 272 274 276 276 278 281 280 280 281 284 284 283 282 281 286 292 293 295 293
331 328 326 324 322 319 316 313 309 305 301 297 293 289 284 278 273 268 264 259 255 251 248 248 247 246 246 247 249 250 246 247 250 248 248 249 248 247 243 239 237 236 237 237 237 235 236 236 237 242 247 248 248 248 245 240 241 239 242 249 248 247 248 251 255 258 261 265 269 271 272 273 275 277 276 277 278 281 284 281 283 283 280 289 297 295 295 293
333 331 329 327 326 323 321 318 315 311 305 299 294 290 285 279 275 269 265 260 255 251 248 246 245 244 245 245 247 248 243 243 247 246 247 248 249 249 246 243 239 237 237 237 237 238 241 242 243 242 241 244 244 243 239 237 245 244 242 249 246 245 249 250 254 258 262 266 268 270 273 273 276 278 276 278 279 279 281 281 285 284 283 291 295 294 296 294
337 335 333 331 330 328 326 323 320 316 311 305 300 294 287 280 275 270 266 261 256 252 247 246 244 243 244 244 245 247 245 242 243 245 248 249 250 249 247 246 243 241 239 238 240 241 242 242 239 235 238 246 244 238 238 240 244 243 240 244 245 248 252 255 257 261 263 266 268 269 272 275 276 276 274 277 279 275 277 282 287 283 284 293 296 294 295 294
341 338 336 334 334 333 330 327 323 320 315 310 306 301 293 283 276 271 266 260 256 252 247 245 243 242 242 245 245 245 245 243 242 244 248 249 250 249 248 247 245 244 242 241 242 242 242 240 238 241 245 247 242 241 244 242 240 241 241 244 249 252 256 257 255 261 265 263 265 271 277 279 277 275 274 277 279 278 279 282 286 283 284 294 298 293 294 295
344 342 340 338 339 337 335 332 327 322 317 313 309 306 300 290 281 274 267 260 255 251 247 244 242 241 242 245 244 243 244 244 243 243 246 249 249 250 249 249 248 246 245 244 242 240 240 240 241 246 244 239 243 250 246 238 239 241 243 246 249 260 280 272 256 256 274 266 259 265 270 280 289 285 281 280 283 285 286 285 287 286 287 296 297 292 295 295
347 346 344 343 342 341 339 335 330 325 319 315 311 307 301 294 286 278 268 260 253 249 246 243 241 239 240 243 243 243 243 243 242 242 245 247 248 250 251 250 248 248 247 245 243 239 238 238 239 238 234 238 244 245 238 236 239 240 244 245 247 269 303 274 270 284 287 268 258 260 260 277 318 296 289 289 279 283 286 287 290 289 287 295 297 291 291 292
351 350 348 348 346 345 342 338 332 326 321 317 313 307 301 294 288 282 273 262 253 247 244 243 241 239 240 242 242 242 241 240 241 242 243 245 248 250 251 251 249 249 248 246 244 242 239 237 238 238 239 244 245 240 238 237 238 240 245 246 245 262 264 282 303 312 291 274 267 256 251 257 265 269 282 294 281 280 281 282 287 288 288 292 294 289 286 291
355 354 353 352 351 350 347 342 337 330 325 321 317 311 304 296 290 285 278 265 254 246 242 241 241 241 241 240 239 241 241 242 241 241 242 244 247 249 251 251 249 249 248 247 246 243 242 240 239 240 241 244 242 238 237 237 240 243 245 248 224 190 235 289 314 307 286 284 276 250 236 228 213 233 274 290 285 282 278 277 282 281 285 289 290 286 285 291
359 358 357 356 356 355 352 349 343 337 332 327 323 319 312 304 297 289 283 272 256 246 241 240 241 244 247 244 243 243 241 242 242 240 241 242 245 248 250 250 250 250 249 247 246 244 243 243 241 241 240 241 239 236 237 232 226 249 277 290 276 202 215 253 287 290 285 281 263 245 238 232 232 234 260 281 287 289 277 277 284 279 279 285 287 283 283 292
3 1 0 360 359 359 358 355 351 345 339 334 330 328 325 322 313 304 297 281 263 249 243 243 242 244 252 252 249 246 241 240 242 240 239 240 242 245 248 250 250 249 248 245 243 242 240 240 240 240 242 242 237 233 234 221 185 201 264 272 280 260 238 235 248 266 275 275 269 265 258 239 245 246 250 284 291 285 266 275 287 287 283 287 285 279 281 291
10 6 4 3 3 3 3 2 358 352 345 340 341 343 342 335 323 318 310 289 274 252 242 245 242 243 252 259 260 250 242 238 239 238 236 237 239 242 246 247 247 247 249 246 241 240 236 238 239 238 239 236 236 234 229 215 193 218 224 215 231 253 248 238 249 269 280 279 274 270 263 247 250 249 251 290 288 278 263 273 286 289 287 294 286 274 277 288
17 13 9 7 7 7 8 7 5 2 355 349 352 358 346 334 326 322 309 286 279 263 250 250 248 247 248 259 266 255 244 238 236 236 234 235 238 241 245 244 246 246 246 245 244 244 232 232 238 235 237 229 230 262 245 220 215 231 221 199 201 228 236 221 218 261 287 282 273 270 264 255 257 244 205 244 265 275 275 264 275 284 285 292 287 277 277 285
24 21 16 13 12 12 13 13 12 11 8 5 5 3 346 340 344 337 314 284 282 287 283 265 252 250 242 251 262 258 249 240 237 236 229 233 239 239 243 245 249 245 246 247 247 251 232 231 246 239 246 236 215 254 242 219 226 240 227 205 212 230 235 223 204 216 265 275 277 273 262 255 258 250 234 234 243 265 282 267 264 275 284 291 289 286 284 284
29 27 24 19 17 16 18 18 19 18 18 18 15 10 2 2 14 13 1 341 312 319 319 291 262 260 254 257 264 265 256 241 240 240 230 230 239 240 240 239 242 238 243 242 241 255 238 230 271 251 262 261 235 251 241 220 231 244 229 221 230 238 230 231 232 234 249 260 267 272 269 261 255 253 265 269 249 255 279 278 269 272 283 293 291 292 292 285
32 31 30 26 23 21 21 23 24 25 25 26 27 28 31 31 30 20 10 35 28 359 343 317 291 280 275 277 281 281 270 250 243 244 236 233 240 244 241 236 241 240 239 237 243 263 245 216 246 238 240 250 245 266 256 225 234 242 234 233 236 235 229 229 240 253 260 259 257 265 278 273 261 252 249 259 263 260 267 279 289 287 291 299 295 294 296 289
34 34 33 31 29 27 25 26 27 29 31 33 37 40 41 36 31 25 24 49 47 18 0 343 328 305 297 302 303 297 280 260 247 245 241 239 244 248 248 242 240 241 238 238 241 246 244 241 247 256 260 252 249 259 248 230 238 243 241 246 246 239 230 224 235 257 266 269 266 266 275 277 267 256 239 238 249 249 249 258 270 279 293 301 294 294 298 296
35 35 36 35 33 32 30 29 29 32 36 38 41 43 41 38 35 38 42 45 31 16 10 6 0 348 344 343 322 299 268 259 252 249 244 243 247 249 254 251 239 240 240 248 247 231 229 243 236 235 256 257 257 252 243 239 241 243 242 249 261 257 242 228 229 244 250 255 262 262 271 274 262 253 250 250 245 231 238 243 241 263 289 294 290 292 292 293
36 36 37 37 36 35 33 33 31 33 38 41 44 43 42 41 41 46 47 37 23 15 17 16 12 12 8 355 335 278 253 271 268 263 254 247 249 249 253 254 245 248 249 248 252 238 238 247 234 231 245 258 260 247 243 246 244 243 235 230 246 252 252 249 249 255 256 255 257 256 266 273 265 255 255 261 257 239 238 247 253 268 282 285 289 289 287 291
36 36 37 38 37 37 36 35 34 34 38 42 45 44 44 45 45 47 42 34 25 18 21 26 22 20 16 358 347 264 252 277 283 275 269 255 249 249 252 254 250 254 257 251 246 246 253 254 241 247 259 265 261 249 244 249 252 253 233 229 241 236 233 245 251 256 259 261 260 257 258 263 264 260 258 264 265 254 248 257 268 275 276 278 285 285 285 292
34 35 36 37 38 38 38 37 36 35 37 41 43 44 44 46 44 42 39 34 28 17 13 20 22 18 14 7 349 291 275 293 294 286 285 270 258 256 257 261 261 261 263 259 250 249 255 255 257 266 267 260 255 249 243 237 237 238 230 229 239 240 235 235 237 240 248 255 257 251 246 254 262 260 255 258 261 260 255 260 272 278 276 276 279 280 283 288
33 33 34 36 37 38 38 39 37 37 38 40 41 41 42 45 41 39 40 37 29 19 11 11 15 11 4 6 356 329 322 320 314 308 298 285 273 265 264 267 264 259 259 259 255 249 251 259 266 268 263 260 257 257 260 252 238 232 234 235 236 239 238 235 235 239 247 251 251 247 243 252 259 256 251 251 253 254 250 255 270 274 272 275 279 279 278 284
32 32 32 34 36 37 38 39 39 39 40 40 41 40 40 42 39 37 40 37 28 23 19 16 17 12 1 1 1 340 322 316 320 320 307 301 294 274 271 269 263 261 261 260 259 255 255 259 262 263 266 266 261 262 269 268 258 249 246 247 249 250 248 247 248 249 253 255 255 252 247 252 257 258 259 253 251 256 256 259 266 268 267 272 280 282 275 278
31 30 30 32 35 36 37 39 39 40 41 41 41 40 40 39 37 35 35 33 28 26 26 25 25 20 4 355 352 333 319 313 318 318 306 303 299 287 285 281 276 279 279 269 262 263 266 266 264 263 268 269 265 264 264 263 267 271 260 253 257 263 260 256 254 250 253 257 255 246 243 248 253 256 257 251 253 264 266 261 258 258 262 269 280 282 274 277
29 29 28 29 32 34 35 37 38 39 41 43 42 40 38 38 37 34 33 32 28 24 25 27 27 22 7 352 341 328 325 318 310 308 301 294 291 292 293 286 282 287 289 281 268 269 272 268 263 257 258 268 273 269 265 266 273 281 270 256 257 262 261 257 252 247 251 254 246 237 239 242 244 251 252 244 244 251 258 264 264 262 265 272 279 278 274 278
25 26 27 28 29 32 33 34 36 38 39 41 43 41 38 38 38 34 33 32 30 25 23 23 23 20 8 354 347 339 332 325 311 303 301 296 291 290 287 284 287 292 290 282 270 271 273 266 263 260 260 270 277 270 266 272 278 280 274 263 259 259 259 261 257 249 249 249 242 236 241 245 247 254 252 245 245 247 253 265 270 270 270 273 275 273 274 279
20 22 24 26 28 30 31 31 33 36 37 39 42 41 38 37 36 33 32 30 30 30 27 25 23 22 17 7 3 353 339 335 325 310 304 298 292 290 285 285 289 293 293 286 274 273 275 270 265 267 269 273 274 272 273 277 278 276 267 260 260 258 251 253 254 250 249 249 245 241 246 250 252 256 258 258 258 255 258 264 268 271 272 272 270 269 272 277
16 17 20 23 26 28 29 30 30 31 35 37 38 40 38 36 34 32 32 29 29 30 30 29 23 20 24 19 4 350 343 343 334 321 312 301 297 296 294 292 292 294 294 290 283 280 280 276 272 272 272 273 271 268 271 275 275 269 266 263 260 255 250 252 256 253 251 252 251 249 252 254 253 256 260 264 261 255 257 263 266 270 273 272 271 269 268 271
13 13 16 19 23 26 28 29 29 30 32 31 34 38 38 36 35 32 30 29 28 28 28 28 24 18 18 17 1 346 344 346 336 324 316 310 305 302 302 300 299 299 295 291 289 287 283 279 275 273 272 270 270 268 268 271 269 268 272 270 264 260 255 254 257 256 254 256 257 254 255 257 257 257 256 252 250 250 251 253 258 265 270 271 269 266 265 266
10 10 13 15 18 23 25 27 28 29 29 27 32 38 37 35 36 33 30 27 24 25 25 24 22 16 12 11 2 348 342 338 334 324 316 315 309 302 304 304 301 300 297 295 294 290 288 286 280 273 273 272 270 270 270 270 269 268 269 267 266 265 258 251 254 256 255 258 262 259 258 259 258 258 258 254 251 250 248 249 253 260 265 266 266 265 263 263
8 8 12 12 13 19 22 23 25 25 24 26 31 35 34 33 34 32 30 26 22 21 21 19 17 14 11 9 1 353 346 338 335 326 314 313 309 303 303 302 299 298 296 295 295 293 292 292 287 279 276 274 271 272 272 270 270 269 266 267 269 268 261 255 255 257 258 261 264 263 260 259 259 260 261 261 258 254 250 246 246 252 257 260 263 264 264 264
9 10 10 10 11 15 18 22 24 22 22 26 30 30 31 32 31 30 28 25 21 18 16 14 10 8 7 5 1 357 352 342 335 325 315 312 310 307 302 299 297 296 294 293 292 291 289 288 286 280 276 276 274 274 274 270 268 267 266 267 268 269 265 258 254 256 260 263 264 263 262 261 263 265 264 263 263 260 252 245 243 248 255 258 260 262 264 265
11 11 10 11 12 13 17 23 26 23 22 26 27 26 27 29 28 28 26 23 20 16 13 9 5 2 360 359 358 355 352 345 334 324 320 316 313 312 307 302 298 293 292 292 290 289 288 286 285 281 278 278 277 277 275 268 263 262 265 265 267 270 265 255 254 254 256 263 265 265 266 264 265 270 270 267 266 263 257 255 258 258 257 259 261 262 263 264
11 10 11 12 13 14 18 24 24 22 22 23 23 22 24 27 27 25 23 21 18 14 10 6 2 358 355 352 351 348 347 345 335 326 323 318 315 315 313 311 306 298 296 294 290 290 289 287 287 285 282 278 276 274 268 262 263 265 266 266 267 266 257 249 253 255 258 265 266 263 265 268 270 272 272 270 268 267 266 266 267 264 261 262 263 262 263 264
11 11 12 12 14 16 20 22 22 22 23 21 20 20 22 24 25 23 21 20 17 13 8 4 0 357 353 348 344 342 341 339 333 327 324 318 316 316 316 315 310 305 303 299 294 294 294 292 291 289 285 280 276 273 265 262 267 269 266 265 264 260 252 250 255 259 262 264 262 262 268 273 274 272 270 269 268 268 268 268 268 267 265 267 265 262 262 264
10 10 10 11 12 13 17 20 22 24 24 20 18 18 19 20 20 21 20 18 15 12 8 3 359 357 353 348 343 338 337 334 329 325 322 318 316 315 314 313 309 308 309 305 300 299 299 299 297 293 289 285 278 273 267 266 269 270 267 263 259 256 255 257 259 259 261 260 259 264 270 273 273 271 270 269 268 267 269 269 270 268 266 266 266 264 264 265
9 7 7 9 10 10 12 15 18 20 20 17 14 13 14 15 15 16 16 15 12 10 7 3 359 356 354 350 346 339 333 330 326 323 320 317 315 314 314 312 308 309 311 308 304 303 303 304 300 296 294 293 286 276 271 270 268 269 266 257 253 254 257 261 260 258 261 262 261 263 265 264 266 269 271 271 269 270 272 272 270 268 266 265 268 269 267 265
7 5 5 8 9 9 10 13 14 15 14 12 10 9 9 10 11 11 11 11 10 7 5 2 359 358 355 352 348 341 335 329 324 321 318 317 315 313 315 314 310 311 312 308 306 304 305 305 300 296 296 296 292 283 276 272 269 266 260 255 256 259 259 260 259 258 262 262 259 261 262 261 262 266 269 271 271 272 274 275 274 272 270 268 268 270 267 263
3 1 3 7 7 8 10 12 13 14 12 10 8 6 5 4 6 7 6 6 6 4 3 0 358 358 357 355 350 345 339 331 326 322 317 316 315 313 314 313 310 312 311 308 307 305 305 307 302 298 299 298 294 288 282 278 274 267 261 259 262 263 262 262 261 262 264 261 258 262 267 267 267 269 270 269 271 275 278 278 276 274 273 270 267 267 266 264
359 358 1 3 4 5 8 9 11 13 11 8 6 5 3 1 1 2 0 359 0 0 359 358 357 357 358 357 354 350 344 335 329 325 321 317 314 312 313 312 309 311 311 309 308 306 306 308 304 299 300 300 296 292 289 287 282 274 265 261 261 262 263 265 266 268 269 265 264 266 267 269 271 273 272 269 270 278 283 280 277 274 273 273 271 270 268 266
354 356 358 359 1 2 3 6 10 10 7 6 6 3 1 0 360 359 357 355 356 357 356 355 355 354 355 356 355 353 349 343 335 329 324 321 317 314 313 311 309 310 311 309 309 308 307 307 304 299 299 300 296 292 289 289 286 279 271 267 265 264 264 266 268 269 270 269 269 269 270 272 272 271 271 270 271 277 279 277 276 276 276 276 275 274 271 266
350 352 355 357 359 358 359 3 4 3 3 6 5 2 0 0 359 357 355 353 352 353 353 353 352 352 353 354 354 352 349 346 341 334 328 324 321 317 314 312 310 309 310 310 310 310 309 308 305 300 299 300 296 292 288 287 287 283 275 272 271 268 266 266 268 269 269 269 269 271 272 272 272 271 271 270 272 274 273 273 275 276 277 278 278 277 272 265
347 348 351 353 354 355 358 358 356 357 2 4 3 1 1 360 357 356 354 352 350 351 351 351 349 349 351 352 353 352 348 345 342 337 332 328 324 318 315 314 311 309 309 309 310 312 310 309 306 300 300 303 297 292 289 289 290 288 282 278 275 272 270 268 267 267 268 270 271 271 271 271 273 274 272 270 270 270 269 272 275 276 275 274 275 276 271 263
346 346 347 348 350 353 354 353 353 359 2 2 1 0 360 358 356 355 353 350 349 349 350 350 349 348 350 351 352 352 349 345 342 337 332 330 326 320 316 315 310 308 309 309 310 312 312 312 309 299 299 304 301 295 292 291 291 291 288 281 276 274 272 269 268 265 266 271 273 271 271 271 271 271 270 269 268 266 266 269 271 273 273 270 269 269 265 261
Height
5785 5784 5782 5781 5780 5779 5778 5778 5777 5776 5776 5775 5775 5775 5774 5774 5774 5774 5774 5774 5774 5774 5774 5774 5774 5775 5775 5775 5775 5775 5776 5776 5777 5778 5779 5779 5780 5781 5781 5782 5783 5784 5785 5786 5787 5787 5788 5789 5789 5790 5791 5792 5792 5793 5793 5794 5795 5795 5796 5797 5799 5799 5801 5802 5806 5808 5804 5802 5798 5798 5803 5803 5802 5800 5801 5803 5802 5802 5801 5801 5800 5799 5798 5794 5792 5792 5791 5790
5783 5781 5780 5778 5777 5776 5775 5775 5774 5773 5773 5772 5772 5772 5772 5772 5772 5772 5772 5772 5772 5772 5772 5772 5772 5773 5773 5773 5773 5773 5774 5774 5775 5776 5777 5777 5778 5779 5780 5781 5781 5782 5783 5784 5785 5786 5787 5787 5788 5789 5789 5790 5790 5791 5792 5793 5793 5794 5795 5796 5798 5799 5799 5800 5802 5802 5798 5798 5797 5798 5801 5801 5800 5799 5799 5801 5800 5799 5799 5798 5797 5797 5796 5789 5787 5790 5789 5787
5781 5779 5778 5776 5775 5773 5772 5771 5771 5770 5770 5770 5769 5769 5769 5769 5769 5769 5769 5769 5770 5770 5770 5770 5770 5771 5771 5771 5771 5772 5772 5773 5774 5775 5775 5776 5776 5777 5778 5779 5780 5781 5782 5783 5784 5784 5785 5786 5787 5787 5788 5788 5789 5790 5791 5791 5792 5793 5794 5795 5797 5797 5796 5796 5796 5796 5795 5797 5797 5797 5799 5799 5799 5798 5797 5798 5798 5798 5796 5794 5794 5795 5793 5786 5784 5786 5786 5787
5779 5777 5776 5774 5772 5771 5769 5769 5768 5767 5767 5767 5766 5766 5766 5766 5766 5766 5766 5767 5767 5767 5768 5768 5768 5768 5768 5769 5769 5770 5770 5771 5772 5772 5773 5774 5774 5775 5776 5777 5778 5779 5780 5781 5782 5783 5784 5784 5785 5786 5786 5787 5787 5789 5789 5790 5791 5791 5792 5794 5794 5794 5794 5794 5793 5794 5795 5796 5797 5796 5797 5797 5797 5797 5796 5796 5796 5796 5794 5790 5791 5793 5791 5785 5781 5783 5785 5785
5777 5775 5774 5772 5770 5768 5767 5766 5765 5764 5764 5763 5763 5763 5763 5763 5763 5763 5763 5764 5764 5765 5765 5766 5766 5766 5766 5766 5767 5768 5768 5770 5771 5770 5771 5772 5773 5773 5774 5775 5776 5777 5778 5779 5780 5781 5782 5783 5783 5784 5785 5785 5786 5787 5787 5788 5789 5790 5791 5792 5791 5791 5793 5791 5791 5793 5794 5795 5795 5795 5795 5794 5794 5795 5794 5794 5794 5793 5792 5788 5788 5791 5789 5783 5780 5782 5783 5781
5775 5773 5772 5770 5768 5766 5765 5763 5762 5762 5761 5760 5760 5760 5760 5760 5760 5760 5761 5761 5762 5762 5763 5763 5764 5764 5764 5764 5765 5765 5766 5768 5769 5768 5770 5770 5771 5772 5773 5774 5774 5776 5776 5777 5778 5779 5780 5781 5782 5783 5783 5784 5785 5785 5786 5787 5787 5788 5790 5790 5789 5791 5791 5789 5790 5792 5792 5793 5793 5793 5793 5793 5793 5792 5792 5792 5791 5791 5790 5788 5786 5788 5786 5782 5780 5781 5780 5778
5773 5771 5770 5768 5766 5764 5763 5761 5760 5759 5758 5757 5757 5757 5756 5757 5757 5757 5758 5758 5759 5760 5760 5761 5761 5761 5762 5762 5763 5763 5764 5767 5767 5767 5768 5768 5769 5770 5771 5772 5773 5774 5775 5776 5777 5778 5779 5779 5780 5781 5782 5782 5783 5783 5784 5785 5786 5787 5787 5787 5788 5789 5789 5787 5789 5791 5791 5791 5791 5791 5791 5791 5791 5790 5789 5790 5789 5789 5788 5787 5786 5786 5781 5779 5780 5778 5777 5777
5772 5770 5768 5766 5764 5763 5761 5759 5758 5757 5756 5755 5754 5754 5753 5753 5754 5754 5755 5755 5756 5757 5757 5758 5759 5759 5760 5760 5761 5761 5763 5765 5765 5765 5766 5767 5768 5768 5770 5771 5771 5772 5773 5774 5775 5776 5777 5778 5779 5779 5780 5780 5781 5781 5782 5783 5784 5785 5785 5785 5786 5787 5787 5786 5788 5789 5789 5789 5789 5789 5789 5789 5789 5788 5788 5787 5787 5787 5786 5786 5785 5785 5779 5776 5778 5777 5775 5775
5770 5768 5766 5764 5762 5760 5759 5757 5755 5754 5753 5752 5751 5751 5750 5750 5750 5751 5752 5752 5753 5754 5755 5755 5756 5757 5757 5758 5758 5759 5762 5763 5763 5764 5764 5765 5766 5767 5768 5769 5770 5770 5771 5772 5773 5775 5775 5776 5777 5777 5778 5778 5779 5779 5780 5782 5782 5783 5783 5783 5784 5785 5785 5785 5786 5787 5787 5787 5787 5787 5787 5787 5787 5787 5786 5785 5785 5785 5785 5784 5783 5783 5778 5775 5776 5775 5774 5772
5768 5766 5764 5762 5760 5758 5756 5755 5753 5752 5751 5750 5749 5748 5747 5747 5747 5748 5749 5749 5750 5751 5752 5752 5753 5754 5754 5755 5756 5757 5760 5761 5761 5762 5763 5763 5764 5765 5767 5767 5768 5769 5770 5771 5772 5772 5773 5774 5775 5775 5777 5777 5777 5778 5779 5780 5779 5780 5781 5781 5783 5783 5783 5784 5784 5785 5785 5785 5785 5785 5785 5785 5785 5785 5784 5783 5784 5783 5783 5782 5781 5781 5777 5774 5774 5773 5772 5770
5767 5764 5762 5760 5758 5756 5754 5752 5751 5749 5748 5747 5746 5745 5745 5744 5744 5745 5745 5747 5747 5748 5749 5750 5751 5752 5752 5753 5754 5755 5758 5759 5759 5760 5761 5762 5763 5763 5765 5766 5767 5768 5768 5770 5770 5771 5772 5773 5774 5775 5775 5774 5775 5776 5777 5777 5777 5779 5780 5780 5781 5781 5781 5782 5782 5783 5783 5783 5783 5783 5783 5783 5783 5783 5782 5780 5781 5782 5781 5780 5779 5779 5775 5774 5773 5770 5771 5769
5765 5763 5760 5758 5756 5754 5752 5750 5749 5747 5746 5745 5744 5743 5742 5742 5742 5742 5743 5744 5745 5746 5747 5747 5748 5749 5750 5751 5751 5754 5756 5757 5758 5759 5759 5760 5761 5762 5763 5764 5765 5766 5767 5768 5768 5769 5770 5771 5772 5772 5772 5773 5774 5774 5774 5775 5776 5778 5778 5778 5779 5779 5780 5780 5780 5781 5781 5781 5781 5781 5781 5781 5781 5782 5780 5778 5779 5780 5779 5778 5777 5777 5773 5772 5771 5768 5768 5768
5764 5761 5759 5756 5754 5752 5750 5749 5747 5745 5744 5743 5742 5741 5740 5740 5739 5739 5740 5741 5742 5743 5744 5745 5746 5747 5748 5748 5750 5752 5753 5754 5756 5757 5757 5758 5759 5760 5761 5762 5763 5764 5764 5765 5766 5767 5768 5769 5770 5769 5771 5772 5771 5772 5773 5774 5775 5776 5776 5777 5777 5778 5778 5778 5779 5779 5779 5779 5780 5780 5779 5779 5778 5779 5779 5777 5776 5777 5777 5776 5775 5775 5771 5771 5770 5766 5766 5767
5763 5760 5757 5755 5753 5751 5749 5747 5745 5743 5742 5741 5740 5739 5738 5738 5737 5737 5737 5738 5739 5740 5742 5743 5744 5745 5745 5746 5748 5750 5750 5752 5753 5754 5756 5757 5757 5758 5759 5760 5761 5762 5762 5763 5764 5765 5766 5767 5768 5768 5770 5770 5769 5771 5772 5773 5773 5774 5775 5775 5776 5776 5776 5775 5776 5778 5778 5777 5778 5778 5777 5776 5775 5775 5776 5776 5775 5774 5775 5773 5773 5773 5769 5769 5768 5764 5764 5765
5762 5759 5756 5754 5751 5749 5747 5745 5743 5742 5740 5739 5738 5737 5736 5736 5735 5735 5735 5736 5737 5738 5740 5741 5741 5743 5743 5744 5746 5747 5748 5749 5751 5752 5754 5755 5756 5757 5757 5758 5759 5760 5761 5762 5762 5763 5764 5765 5766 5767 5767 5767 5768 5770 5771 5771 5772 5773 5773 5774 5775 5775 5775 5773 5774 5778 5777 5775 5776 5777 5775 5775 5775 5772 5771 5774 5774 5773 5773 5771 5771 5771 5768 5767 5766 5763 5763 5763
5761 5758 5756 5753 5750 5748 5746 5744 5742 5740 5739 5737 5736 5735 5735 5734 5734 5733 5733 5734 5735 5736 5738 5739 5739 5741 5741 5743 5744 5745 5745 5747 5749 5750 5752 5753 5754 5755 5756 5756 5757 5758 5759 5760 5761 5761 5762 5763 5764 5764 5765 5766 5767 5768 5769 5770 5771 5771 5772 5773 5774 5775 5776 5774 5773 5776 5776 5774 5774 5775 5775 5775 5775 5772 5768 5771 5773 5772 5771 5769 5769 5769 5767 5766 5764 5761 5761 5761
5761 5758 5755 5752 5750 5747 5745 5743 5740 5739 5737 5736 5735 5734 5733 5732 5732 5732 5732 5732 5733 5734 5735 5737 5738 5739 5740 5741 5742 5742 5743 5745 5747 5748 5749 5751 5752 5753 5754 5755 5756 5756 5757 5758 5759 5760 5761 5761 5762 5763 5764 5765 5766 5766 5767 5768 5769 5770 5771 5772 5773 5774 5776 5775 5772 5771 5772 5772 5772 5773 5774 5773 5773 5772 5768 5767 5770 5771 5770 5767 5768 5768 5766 5765 5763 5759 5758 5759
5761 5758 5755 5752 5749 5747 5744 5742 5739 5737 5736 5734 5733 5732 5732 5731 5731 5730 5730 5731 5731 5732 5734 5735 5736 5737 5738 5739 5740 5740 5742 5744 5745 5746 5748 5749 5750 5751 5753 5753 5754 5755 5755 5757 5757 5758 5759 5760 5761 5761 5762 5763 5764 5765 5766 5767 5768 5770 5771 5772 5773 5774 5775 5778 5774 5769 5769 5770 5770 5771 5773 5772 5771 5772 5770 5765 5765 5770 5768 5765 5765 5766 5765 5764 5763 5759 5756 5757
5761 5758 5755 5752 5749 5746 5744 5741 5739 5737 5735 5733 5732 5731 5730 5730 5730 5730 5730 5730 5730 5731 5732 5734 5735 5736 5737 5738 5738 5739 5741 5743 5744 5745 5746 5747 5749 5750 5751 5752 5753 5753 5754 5755 5756 5756 5757 5758 5759 5760 5760 5762 5763 5763 5765 5766 5767 5770 5773 5773 5773 5774 5775 5778 5775 5769 5769 5769 5768 5769 5770 5771 5770 5771 5771 5766 5762 5766 5766 5762 5762 5763 5763 5763 5762 5757 5755 5755
5762 5759 5755 5752 5749 5746 5744 5741 5738 5736 5734 5732 5731 5730 5730 5729 5730 5730 5729 5729 5729 5730 5731 5733 5734 5735 5736 5736 5737 5738 5739 5741 5742 5743 5744 5746 5747 5748 5749 5750 5751 5752 5752 5754 5754 5754 5755 5756 5757 5758 5759 5761 5761 5762 5764 5764 5765 5767 5768 5769 5772 5774 5775 5778 5776 5770 5768 5768 5767 5767 5766 5768 5768 5768 5771 5768 5761 5762 5765 5762 5760 5761 5760 5760 5759 5755 5754 5755
5763 5759 5756 5753 5750 5747 5744 5741 5738 5735 5733 5732 5731 5730 5730 5729 5729 5729 5729 5729 5729 5730 5731 5732 5733 5734 5735 5736 5736 5737 5738 5739 5740 5742 5743 5744 5745 5747 5748 5749 5750 5751 5751 5752 5752 5752 5753 5755 5756 5757 5758 5759 5760 5762 5763 5763 5763 5762 5762 5766 5768 5771 5773 5774 5775 5771 5766 5765 5766 5765 5763 5764 5765 5766 5769 5768 5761 5759 5762 5761 5758 5758 5758 5758 5756 5752 5753 5754
5764 5760 5757 5754 5750 5747 5744 5741 5738 5736 5733 5731 5731 5730 5730 5729 5729 5729 5728 5728 5729 5730 5731 5732 5732 5733 5735 5735 5735 5736 5737 5738 5739 5740 5742 5743 5744 5745 5746 5747 5748 5749 5750 5751 5751 5751 5752 5754 5754 5755 5757 5757 5760 5762 5760 5759 5759 5759 5761 5764 5764 5766 5768 5768 5770 5772 5768 5765 5765 5762 5760 5761 5763 5763 5764 5765 5762 5758 5757 5757 5756 5756 5756 5755 5752 5750 5751 5751
5765 5761 5758 5754 5751 5748 5745 5742 5739 5736 5734 5732 5731 5730 5730 5729 5729 5729 5728 5729 5729 5730 5731 5731 5732 5733 5733 5734 5734 5735 5736 5737 5738 5739 5741 5743 5743 5744 5745 5746 5747 5748 5749 5749 5750 5751 5752 5753 5754 5755 5755 5755 5758 5758 5754 5755 5756 5757 5760 5761 5761 5762 5765 5767 5768 5770 5767 5765 5765 5762 5758 5759 5760 5760 5760 5760 5760 5758 5754 5753 5754 5754 5754 5754 5750 5748 5750 5749
5766 5762 5759 5756 5752 5749 5746 5743 5740 5737 5734 5733 5731 5731 5730 5730 5730 5729 5729 5729 5729 5730 5731 5731 5732 5732 5733 5734 5734 5735 5735 5736 5737 5738 5740 5741 5742 5743 5745 5745 5745 5746 5748 5748 5749 5750 5751 5752 5752 5753 5753 5754 5755 5754 5752 5753 5755 5756 5757 5757 5759 5760 5761 5764 5766 5767 5764 5761 5762 5761 5757 5757 5757 5757 5758 5758 5757 5756 5754 5752 5751 5750 5750 5751 5748 5745 5747 5747
5767 5764 5760 5757 5754 5751 5748 5744 5741 5738 5736 5734 5733 5732 5732 5731 5731 5730 5730 5730 5730 5731 5731 5731 5732 5732 5733 5734 5734 5735 5735 5736 5737 5737 5739 5740 5741 5742 5743 5744 5745 5745 5747 5748 5748 5749 5751 5751 5751 5751 5752 5752 5752 5751 5751 5752 5752 5753 5755 5756 5757 5758 5759 5761 5763 5764 5763 5759 5760 5760 5756 5755 5756 5755 5756 5757 5755 5756 5756 5753 5752 5750 5747 5748 5746 5742 5743 5745
5768 5765 5762 5759 5755 5752 5749 5746 5743 5740 5738 5736 5734 5734 5733 5733 5732 5731 5731 5731 5731 5731 5731 5731 5732 5733 5733 5734 5734 5735 5735 5736 5736 5737 5738 5739 5740 5741 5742 5743 5744 5744 5745 5746 5746 5747 5749 5750 5749 5749 5749 5749 5749 5749 5750 5750 5751 5751 5753 5755 5756 5756 5756 5756 5758 5759 5758 5758 5758 5757 5755 5753 5754 5753 5753 5753 5753 5755 5755 5753 5752 5750 5746 5746 5745 5741 5740 5743
5769 5766 5763 5760 5757 5754 5751 5748 5745 5743 5740 5738 5736 5735 5735 5734 5733 5733 5733 5732 5733 5732 5732 5732 5733 5733 5734 5734 5735 5735 5735 5736 5736 5737 5738 5739 5740 5741 5741 5742 5742 5743 5743 5744 5745 5745 5745 5746 5746 5746 5746 5746 5746 5747 5748 5747 5748 5749 5752 5754 5754 5754 5754 5754 5755 5755 5754 5754 5754 5753 5753 5751 5750 5750 5750 5750 5750 5751 5751 5749 5748 5747 5744 5744 5743 5740 5738 5739
5771 5768 5765 5762 5759 5756 5753 5750 5748 5745 5742 5740 5738 5737 5736 5736 5735 5734 5733 5734 5734 5734 5733 5733 5733 5734 5734 5734 5735 5735 5735 5736 5737 5737 5737 5738 5739 5740 5740 5740 5741 5742 5741 5742 5743 5743 5743 5744 5744 5744 5744 5746 5745 5745 5745 5745 5746 5748 5749 5750 5750 5750 5751 5751 5751 5750 5750 5750 5748 5750 5751 5749 5747 5748 5748 5748 5747 5748 5747 5745 5744 5744 5743 5742 5741 5740 5738 5737
5772 5769 5767 5764 5761 5758 5755 5752 5750 5747 5745 5742 5740 5739 5738 5737 5735 5735 5735 5735 5735 5735 5734 5734 5734 5735 5735 5735 5735 5736 5736 5736 5737 5737 5737 5738 5738 5739 5739 5739 5740 5740 5740 5741 5742 5742 5742 5742 5742 5742 5742 5744 5744 5742 5742 5742 5743 5745 5744 5743 5744 5745 5746 5746 5745 5746 5746 5744 5743 5746 5748 5746 5745 5745 5746 5746 5745 5745 5744 5742 5741 5741 5740 5739 5739 5738 5737 5735
5773 5771 5768 5765 5763 5760 5757 5754 5752 5750 5747 5744 5742 5740 5739 5737 5737 5736 5737 5737 5736 5736 5735 5735 5735 5735 5736 5736 5736 5736 5736 5737 5737 5737 5737 5737 5738 5738 5738 5739 5739 5739 5739 5739 5740 5740 5739 5740 5740 5740 5740 5740 5740 5738 5738 5739 5739 5740 5738 5738 5739 5740 5740 5740 5740 5741 5741 5738 5739 5742 5744 5743 5742 5742 5742 5742 5742 5742 5742 5740 5740 5739 5738 5736 5736 5736 5736 5734
5774 5772 5769 5767 5764 5762 5759 5757 5754 5752 5749 5747 5745 5743 5741 5740 5739 5738 5738 5738 5738 5737 5736 5736 5736 5736 5736 5736 5737 5737 5737 5737 5737 5737 5737 5737 5737 5737 5737 5737 5737 5737 5737 5737 5737 5737 5736 5737 5738 5738 5736 5737 5736 5735 5736 5736 5736 5736 5735 5735 5736 5735 5736 5735 5736 5737 5735 5734 5737 5739 5740 5740 5738 5738 5739 5739 5738 5737 5738 5738 5738 5738 5736 5734 5733 5734 5734 5732
5776 5773 5771 5768 5766 5764 5761 5759 5757 5754 5752 5750 5748 5746 5744 5743 5741 5740 5739 5739 5739 5738 5738 5737 5737 5737 5737 5737 5737 5737 5737 5737 5736 5736 5736 5736 5737 5736 5737 5737 5736 5736 5736 5736 5735 5735 5735 5735 5735 5735 5734 5733 5733 5733 5734 5733 5733 5733 5733 5734 5733 5732 5732 5732 5732 5733 5731 5732 5735 5736 5736 5736 5735 5735 5736 5736 5736 5735 5734 5734 5735 5734 5733 5733 5732 5731 5731 5730
5777 5775 5772 5770 5767 5765 5763 5760 5758 5756 5754 5752 5750 5748 5746 5744 5742 5742 5741 5740 5740 5739 5738 5738 5738 5738 5738 5737 5737 5737 5736 5736 5736 5736 5736 5736 5736 5736 5736 5735 5734 5734 5734 5734 5734 5733 5734 5734 5733 5733 5732 5731 5731 5731 5731 5731 5731 5731 5731 5732 5731 5730 5729 5728 5729 5729 5729 5730 5732 5732 5731 5730 5731 5732 5733 5733 5734 5734 5731 5730 5731 5731 5730 5731 5730 5729 5728 5727
5778 5776 5773 5771 5769 5766 5764 5762 5760 5758 5756 5754 5752 5750 5748 5746 5745 5744 5743 5742 5741 5740 5739 5739 5739 5738 5738 5737 5737 5736 5736 5736 5736 5735 5735 5735 5735 5735 5734 5733 5733 5733 5732 5732 5732 5731 5731 5731 5731 5731 5730 5729 5729 5729 5729 5729 5729 5729 5729 5729 5728 5727 5727 5726 5726 5726 5726 5726 5727 5728 5727 5727 5729 5729 5729 5730 5730 5730 5729 5727 5728 5727 5727 5729 5729 5727 5725 5724
5779 5777 5775 5772 5770 5768 5765 5763 5761 5760 5758 5756 5753 5752 5750 5748 5747 5746 5744 5743 5743 5742 5741 5740 5739 5738 5738 5737 5737 5736 5736 5736 5735 5735 5734 5734 5733 5733 5733 5731 5731 5731 5730 5730 5729 5729 5729 5729 5729 5728 5728 5728 5728 5727 5726 5727 5727 5727 5727 5726 5725 5726 5724 5722 5722 5723 5723 5723 5723 5725 5725 5725 5727 5726 5725 5726 5726 5727 5727 5726 5725 5723 5723 5725 5725 5725 5723 5721
5780 5778 5776 5773 5771 5769 5766 5765 5763 5761 5759 5757 5755 5753 5751 5750 5749 5748 5746 5745 5744 5743 5742 5741 5740 5739 5738 5737 5737 5736 5736 5735 5735 5734 5733 5732 5732 5732 5731 5730 5730 5729 5728 5727 5727 5726 5726 5726 5726 5725 5726 5726 5726 5725 5724 5724 5725 5725 5724 5724 5723 5723 5722 5720 5719 5721 5721 5720 5720 5723 5723 5723 5724 5723 5722 5723 5722 5723 5724 5723 5722 5720 5720 5721 5721 5722 5721 5719
5781 5779 5776 5774 5772 5770 5768 5766 5764 5762 5760 5758 5756 5754 5753 5752 5751 5749 5748 5747 5745 5744 5742 5742 5741 5739 5738 5738 5737 5736 5736 5735 5734 5733 5732 5731 5730 5730 5729 5728 5728 5727 5726 5725 5725 5724 5723 5723 5724 5723 5722 5723 5723 5722 5723 5723 5723 5722 5722 5722 5720 5719 5720 5719 5717 5718 5719 5717 5718 5721 5720 5720 5720 5719 5719 5719 5718 5719 5720 5720 5718 5717 5717 5717 5718 5718 5718 5718
5781 5779 5777 5775 5773 5770 5769 5767 5765 5763 5762 5759 5757 5755 5754 5753 5752 5751 5749 5748 5746 5745 5743 5742 5741 5740 5739 5738 5737 5736 5735 5734 5733 5732 5731 5730 5729 5729 5728 5727 5726 5725 5724 5723 5722 5721 5719 5719 5721 5720 5719 5720 5720 5719 5719 5720 5719 5720 5720 5719 5717 5717 5717 5716 5715 5716 5716 5715 5716 5717 5718 5718 5716 5714 5715 5716 5715 5715 5715 5715 5715 5715 5714 5714 5714 5715 5714 5715
5781 5779 5777 5775 5773 5771 5769 5767 5766 5764 5762 5760 5758 5757 5756 5754 5753 5752 5750 5749 5747 5746 5744 5743 5742 5741 5739 5739 5738 5736 5735 5734 5732 5731 5730 5729 5728 5728 5727 5725 5724 5723 5722 5721 5719 5718 5717 5715 5717 5718 5717 5716 5716 5715 5716 5717 5717 5716 5717 5716 5715 5714 5714 5714 5713 5713 5713 5713 5714 5714 5714 5714 5712 5711 5713 5713 5712 5713 5712 5712 5713 5712 5711 5711 5711 5711 5711 5711
5781 5779 5778 5776 5773 5771 5770 5768 5766 5765 5763 5761 5759 5758 5757 5755 5754 5752 5751 5749 5748 5747 5745 5744 5742 5741 5739 5738 5737 5736 5735 5734 5732 5731 5729 5728 5727 5726 5725 5724 5723 5721 5720 5719 5717 5716 5715 5713 5713 5715 5714 5713 5713 5713 5713 5714 5713 5712 5713 5713 5712 5712 5711 5711 5710 5711 5711 5710 5711 5710 5711 5711 5709 5708 5710 5709 5708 5710 5710 5709 5709 5709 5708 5708 5708 5708 5708 5708
5781 5779 5778 5775 5773 5772 5770 5768 5767 5765 5763 5761 5760 5759 5757 5756 5754 5753 5751 5750 5748 5747 5746 5744 5743 5741 5740 5738 5737 5736 5735 5733 5732 5730 5729 5727 5725 5725 5723 5722 5721 5719 5718 5717 5715 5713 5713 5711 5709 5711 5711 5710 5710 5710 5709 5709 5709 5709 5709 5709 5709 5709 5709 5707 5707 5708 5708 5707 5708 5707 5707 5707 5707 5706 5707 5705 5705 5706 5707 5706 5707 5707 5706 5705 5705 5705 5706 5705
5780 5779 5777 5775 5774 5772 5770 5769 5767 5765 5763 5762 5761 5759 5758 5756 5755 5753 5752 5750 5749 5747 5746 5745 5743 5742 5740 5738 5737 5735 5734 5733 5731 5729 5728 5726 5725 5724 5722 5721 5719 5717 5716 5715 5713 5711 5710 5708 5706 5706 5707 5707 5706 5707 5706 5704 5704 5705 5705 5705 5705 5705 5705 5703 5703 5704 5704 5704 5704 5704 5703 5703 5704 5704 5703 5702 5703 5703 5703 5703 5704 5704 5703 5702 5703 5703 5702 5702
5780 5778 5777 5775 5774 5772 5771 5769 5767 5765 5763 5762 5761 5760 5758 5756 5755 5753 5752 5750 5749 5747 5746 5744 5743 5742 5740 5738 5737 5735 5733 5732 5730 5729 5727 5725 5723 5722 5721 5719 5717 5715 5714 5712 5710 5708 5707 5705 5703 5702 5702 5702 5703 5703 5702 5701 5700 5701 5701 5701 5701 5701 5700 5700 5700 5700 5700 5700 5700 5700 5700 5700 5701 5702 5701 5700 5700 5699 5699 5700 5700 5700 5700 5700 5700 5700 5699 5699
5779 5778 5777 5775 5773 5772 5771 5769 5767 5765 5764 5762 5761 5760 5758 5756 5755 5753 5752 5750 5749 5747 5746 5744 5742 5741 5740 5738 5737 5735 5733 5731 5729 5727 5726 5723 5721 5720 5719 5718 5715 5713 5711 5710 5708 5705 5704 5702 5700 5698 5697 5698 5699 5698 5698 5697 5697 5696 5696 5696 5697 5697 5696 5697 5697 5696 5695 5697 5697 5697 5697 5697 5697 5697 5697 5697 5697 5696 5695 5697 5697 5696 5697 5696 5697 5697 5696 5696
5779 5778 5776 5775 5773 5772 5770 5768 5767 5765 5764 5762 5761 5759 5758 5756 5755 5753 5752 5750 5749 5747 5745 5744 5742 5740 5739 5738 5736 5734 5733 5731 5729 5726 5724 5722 5720 5717 5716 5715 5713 5711 5709 5707 5705 5703 5701 5700 5698 5695 5694 5693 5694 5694 5693 5692 5692 5692 5692 5692 5692 5693 5693 5693 5693 5692 5692 5693 5694 5693 5693 5694 5693 5693 5693 5693 5693 5692 5692 5692 5693 5692 5692 5693 5693 5694 5694 5693
5779 5778 5776 5774 5773 5771 5769 5768 5766 5765 5763 5762 5760 5759 5757 5756 5754 5753 5751 5750 5748 5746 5745 5743 5741 5740 5738 5736 5735 5733 5731 5729 5727 5725 5723 5721 5718 5716 5714 5712 5710 5708 5707 5704 5702 5700 5699 5698 5696 5693 5691 5690 5690 5690 5688 5688 5688 5688 5688 5688 5689 5689 5689 5689 5688 5689 5689 5689 5690 5691 5690 5691 5690 5689 5689 5689 5688 5689 5689 5689 5689 5689 5688 5689 5689 5689 5689 5689
5778 5777 5775 5774 5773 5771 5769 5768 5766 5764 5763 5761 5760 5758 5757 5755 5754 5752 5751 5749 5748 5746 5744 5742 5740 5739 5737 5735 5734 5732 5730 5728 5726 5724 5722 5719 5717 5714 5712 5710 5707 5706 5704 5701 5699 5697 5695 5694 5693 5691 5690 5688 5686 5686 5685 5683 5683 5684 5684 5684 5685 5685 5685 5685 5685 5686 5686 5685 5686 5688 5687 5686 5687 5687 5686 5686 5685 5685 5686 5685 5685 5685 5685 5684 5685 5685 5685 5685
5778 5776 5775 5774 5772 5770 5769 5767 5765 5764 5763 5761 5760 5758 5756 5755 5753 5751 5750 5748 5747 5745 5743 5741 5739 5738 5736 5734 5732 5731 5729 5727 5724 5722 5720 5718 5716 5713 5711 5708 5705 5703 5701 5698 5696 5694 5692 5691 5690 5688 5687 5685 5684 5683 5682 5680 5679 5679 5679 5680 5681 5681 5681 5681 5682 5683 5682 5681 5683 5684 5684 5683 5683 5683 5683 5683 5682 5681 5681 5681 5681 5681 5680 5680 5680 5680 5681 5681
5777 5775 5774 5773 5771 5770 5768 5767 5765 5764 5762 5761 5759 5758 5756 5754 5752 5750 5749 5747 5746 5744 5742 5740 5738 5736 5735 5733 5731 5729 5727 5725 5723 5720 5718 5716 5714 5711 5709 5706 5703 5700 5698 5695 5693 5691 5689 5688 5687 5685 5684 5683 5681 5680 5679 5677 5676 5676 5677 5677 5678 5678 5678 5678 5679 5679 5678 5678 5679 5680 5680 5680 5679 5679 5679 5679 5678 5678 5678 5677 5676 5676 5676 5676 5676 5676 5676 5676
5776 5775 5773 5772 5771 5769 5768 5766 5765 5763 5761 5760 5759 5757 5755 5753 5751 5750 5748 5746 5745 5743 5741 5739 5737 5735 5733 5732 5730 5728 5726 5723 5721 5719 5716 5714 5711 5708 5706 5703 5700 5698 5695 5692 5690 5688 5686 5685 5684 5681 5681 5681 5679 5678 5677 5675 5674 5674 5674 5675 5675 5675 5675 5675 5675 5675 5675 5674 5675 5674 5674 5675 5674 5674 5674 5674 5674 5675 5674 5673 5672 5672 5671 5672 5672 5672 5672 5672
5775 5774 5773 5771 5770 5768 5767 5765 5763 5761 5760 5758 5757 5756 5754 5752 5750 5749 5747 5746 5744 5742 5740 5737 5735 5733 5732 5730 5728 5726 5724 5721 5719 5717 5714 5711 5709 5706 5703 5700 5697 5695 5692 5689 5686 5685 5683 5682 5681 5679 5677 5678 5677 5675 5674 5673 5671 5671 5672 5672 5671 5671 5671 5671 5671 5671 5670 5670 5670 5670 5670 5670 5669 5669 5669 5669 5669 5670 5670 5669 5668 5667 5667 5668 5668 5668 5668 5668
5774 5773 5771 5770 5769 5768 5766 5765 5763 5760 5759 5758 5756 5755 5753 5751 5749 5748 5746 5745 5743 5741 5739 5736 5734 5732 5730 5728 5726 5724 5722 5720 5717 5715 5712 5709 5707 5703 5700 5698 5695 5692 5689 5687 5684 5682 5680 5679 5679 5677 5675 5675 5675 5673 5672 5671 5669 5669 5669 5668 5668 5668 5667 5667 5667 5667 5666 5666 5666 5666 5665 5665 5664 5664 5665 5664 5664 5665 5665 5665 5664 5663 5663 5664 5664 5665 5665 5665